owner,sensor,date,latitude,longitude,vertical_datum,wind_speed,wind_to_direction,wind_speed_of_gust,qcFlag 
TCOON,ioos:station:TCOON:006:1,2011-03-01T00:00:00Z,27.8217,-97.2040,0.0,3.5,360.0,7.1,'11111222,11144222,11111222' 
TCOON,ioos:station:TCOON:006:1,2011-03-01T02:00:00Z,27.8217,-97.2040,0.0,1.7,8.0,5.0,'11111222,11111222,11111222' 
TCOON,ioos:station:TCOON:006:1,2011-03-01T03:00:00Z,27.8217,-97.2040,0.0,3.0,5.0,7.3,'11111222,11111222,11111222' 
TCOON,ioos:station:TCOON:006:1,2011-03-01T04:00:00Z,27.8217,-97.2040,0.0,2.0,6.0,4.0,'11111222,11111222,11111222' 
TCOON,ioos:station:TCOON:006:1,2011-03-01T05:00:00Z,27.8217,-97.2040,0.0,0.9,3.0,2.5,'11111222,11111222,11111222' 
TCOON,ioos:station:TCOON:006:1,2011-03-01T06:00:00Z,27.8217,-97.2040,0.0,2.4,18.0,4.6,'11111222,11111222,11111222' 
TCOON,ioos:station:TCOON:006:1,2011-03-01T07:00:00Z,27.8217,-97.2040,0.0,2.5,28.0,4.7,'11111222,11111222,11111222' 
TCOON,ioos:station:TCOON:006:1,2011-03-01T08:00:00Z,27.8217,-97.2040,0.0,3.7,29.0,6.4,'11111222,11111222,11111222' 
TCOON,ioos:station:TCOON:006:1,2011-03-01T09:00:00Z,27.8217,-97.2040,0.0,3.1,19.0,6.9,'11111222,11111222,11111222' 
TCOON,ioos:station:TCOON:006:1,2011-03-01T10:00:00Z,27.8217,-97.2040,0.0,2.4,16.0,5.4,'11111222,11111222,11111222' 
TCOON,ioos:station:TCOON:006:1,2011-03-01T11:00:00Z,27.8217,-97.2040,0.0,1.1,14.0,3.3,'11111222,11111222,11111222' 
TCOON,ioos:station:TCOON:006:1,2011-03-01T12:00:00Z,27.8217,-97.2040,0.0,1.3,22.0,3.9,'11111222,11111222,11111222' 
TCOON,ioos:station:TCOON:006:1,2011-03-01T13:00:00Z,27.8217,-97.2040,0.0,1.6,20.0,3.1,'11111222,11111222,11111222' 
TCOON,ioos:station:TCOON:006:1,2011-03-01T14:00:00Z,27.8217,-97.2040,0.0,4.0,44.0,6.0,'11111222,11111222,11111222' 
TCOON,ioos:station:TCOON:006:1,2011-03-01T15:00:00Z,27.8217,-97.2040,0.0,3.3,52.0,6.5,'11111222,11111222,11111222' 
TCOON,ioos:station:TCOON:006:1,2011-03-01T16:00:00Z,27.8217,-97.2040,0.0,4.2,40.0,6.3,'11111222,11111222,11111222' 
TCOON,ioos:station:TCOON:006:1,2011-03-01T17:00:00Z,27.8217,-97.2040,0.0,3.2,67.0,5.1,'11111222,11111222,11111222' 
TCOON,ioos:station:TCOON:006:1,2011-03-01T18:00:00Z,27.8217,-97.2040,0.0,4.0,66.0,6.5,'11111222,11111222,11111222' 
TCOON,ioos:station:TCOON:006:1,2011-03-01T19:00:00Z,27.8217,-97.2040,0.0,3.6,98.0,5.4,'11111222,11111222,11111222' 
TCOON,ioos:station:TCOON:006:1,2011-03-01T20:00:00Z,27.8217,-97.2040,0.0,3.6,85.0,4.8,'11111222,11111222,11111222' 
TCOON,ioos:station:TCOON:006:1,2011-03-01T21:00:00Z,27.8217,-97.2040,0.0,4.0,78.0,5.3,'11111222,11111222,11111222' 
TCOON,ioos:station:TCOON:006:1,2011-03-01T22:00:00Z,27.8217,-97.2040,0.0,2.4,107.0,4.4,'11111222,11111222,11111222' 
TCOON,ioos:station:TCOON:006:1,2011-03-01T23:00:00Z,27.8217,-97.2040,0.0,2.8,100.0,4.0,'11111222,11111222,11111222' 
TCOON,ioos:station:TCOON:006:1,2011-03-02T00:00:00Z,27.8217,-97.2040,0.0,2.2,104.0,3.6,'11111222,11111222,11111222' 
TCOON,ioos:station:TCOON:006:1,2011-03-02T01:00:00Z,27.8217,-97.2040,0.0,1.4,104.0,2.5,'11111222,11111222,11111222' 
TCOON,ioos:station:TCOON:006:1,2011-03-02T02:00:00Z,27.8217,-97.2040,0.0,2.2,102.0,3.4,'11111222,11111222,11111222' 
TCOON,ioos:station:TCOON:006:1,2011-03-02T03:00:00Z,27.8217,-97.2040,0.0,2.1,100.0,3.5,'11111222,11111222,11111222' 
TCOON,ioos:station:TCOON:006:1,2011-03-02T04:00:00Z,27.8217,-97.2040,0.0,1.8,105.0,3.4,'11111222,11111222,11111222' 
TCOON,ioos:station:TCOON:006:1,2011-03-02T05:00:00Z,27.8217,-97.2040,0.0,2.8,122.0,4.1,'11111222,11111222,11111222' 
TCOON,ioos:station:TCOON:006:1,2011-03-02T06:00:00Z,27.8217,-97.2040,0.0,1.4,102.0,2.5,'11111222,11111222,11111222' 
TCOON,ioos:station:TCOON:006:1,2011-03-02T07:00:00Z,27.8217,-97.2040,0.0,1.2,26.0,1.8,'11111222,11111222,11111222' 
TCOON,ioos:station:TCOON:006:1,2011-03-02T08:00:00Z,27.8217,-97.2040,0.0,1.1,9.0,1.9,'11111222,11111222,11111222' 
TCOON,ioos:station:TCOON:006:1,2011-03-02T09:00:00Z,27.8217,-97.2040,0.0,1.0,12.0,1.7,'11111222,11111222,11111222' 
TCOON,ioos:station:TCOON:006:1,2011-03-02T10:00:00Z,27.8217,-97.2040,0.0,1.2,9.0,2.3,'11111222,11111222,11111222' 
TCOON,ioos:station:TCOON:006:1,2011-03-02T11:00:00Z,27.8217,-97.2040,0.0,1.1,15.0,1.7,'11111222,11111222,11111222' 
TCOON,ioos:station:TCOON:006:1,2011-03-02T12:00:00Z,27.8217,-97.2040,0.0,1.1,18.0,2.4,'11111222,11111222,11111222' 
TCOON,ioos:station:TCOON:006:1,2011-03-02T13:00:00Z,27.8217,-97.2040,0.0,2.0,23.0,2.7,'11111222,11111222,11111222' 
TCOON,ioos:station:TCOON:006:1,2011-03-02T14:00:00Z,27.8217,-97.2040,0.0,2.3,49.0,3.6,'11111222,11111222,11111222' 
TCOON,ioos:station:TCOON:006:1,2011-03-02T15:00:00Z,27.8217,-97.2040,0.0,3.8,71.0,4.9,'11111222,11111222,11111222' 
TCOON,ioos:station:TCOON:006:1,2011-03-02T16:00:00Z,27.8217,-97.2040,0.0,1.9,88.0,3.7,'11111222,11111222,11111222' 
TCOON,ioos:station:TCOON:006:1,2011-03-02T17:00:00Z,27.8217,-97.2040,0.0,3.4,82.0,3.8,'11111222,11111222,11111222' 
TCOON,ioos:station:TCOON:006:1,2011-03-02T18:00:00Z,27.8217,-97.2040,0.0,3.4,90.0,4.6,'11111222,11111222,11111222' 
TCOON,ioos:station:TCOON:006:1,2011-03-02T19:00:00Z,27.8217,-97.2040,0.0,3.2,85.0,4.6,'11111222,11111222,11111222' 
TCOON,ioos:station:TCOON:006:1,2011-03-02T20:00:00Z,27.8217,-97.2040,0.0,3.3,88.0,4.6,'11111222,11111222,11111222' 
TCOON,ioos:station:TCOON:006:1,2011-03-02T21:00:00Z,27.8217,-97.2040,0.0,3.1,100.0,4.9,'11111222,11111222,11111222' 
TCOON,ioos:station:TCOON:006:1,2011-03-02T22:00:00Z,27.8217,-97.2040,0.0,3.8,87.0,5.3,'11111222,11111222,11111222' 
TCOON,ioos:station:TCOON:006:1,2011-03-02T23:00:00Z,27.8217,-97.2040,0.0,3.6,77.0,5.7,'11111222,11111222,11111222' 
TCOON,ioos:station:TCOON:006:1,2011-03-03T00:00:00Z,27.8217,-97.2040,0.0,3.0,73.0,3.8,'11111222,11111222,11111222' 
TCOON,ioos:station:TCOON:006:1,2011-03-03T01:00:00Z,27.8217,-97.2040,0.0,2.9,75.0,4.0,'11111222,11111222,11111222' 
TCOON,ioos:station:TCOON:006:1,2011-03-03T02:00:00Z,27.8217,-97.2040,0.0,2.9,74.0,4.5,'11111222,11111222,11111222' 
TCOON,ioos:station:TCOON:006:1,2011-03-03T03:00:00Z,27.8217,-97.2040,0.0,3.3,67.0,5.2,'11111222,11111222,11111222' 
TCOON,ioos:station:TCOON:006:1,2011-03-03T04:00:00Z,27.8217,-97.2040,0.0,3.7,68.0,5.3,'11111222,11111222,11111222' 
TCOON,ioos:station:TCOON:006:1,2011-03-03T05:00:00Z,27.8217,-97.2040,0.0,2.8,74.0,4.3,'11111222,11111222,11111222' 
TCOON,ioos:station:TCOON:006:1,2011-03-03T06:00:00Z,27.8217,-97.2040,0.0,2.5,76.0,3.9,'11111222,11111222,11111222' 
TCOON,ioos:station:TCOON:006:1,2011-03-03T07:00:00Z,27.8217,-97.2040,0.0,2.1,65.0,3.0,'11111222,11111222,11111222' 
TCOON,ioos:station:TCOON:006:1,2011-03-03T08:00:00Z,27.8217,-97.2040,0.0,1.7,68.0,2.7,'11111222,11111222,11111222' 
TCOON,ioos:station:TCOON:006:1,2011-03-03T09:00:00Z,27.8217,-97.2040,0.0,1.7,88.0,2.6,'11111222,11111222,11111222' 
TCOON,ioos:station:TCOON:006:1,2011-03-03T10:00:00Z,27.8217,-97.2040,0.0,1.0,75.0,1.5,'11111222,11111222,11111222' 
TCOON,ioos:station:TCOON:006:1,2011-03-03T11:00:00Z,27.8217,-97.2040,0.0,0.6,35.0,0.6,'11111222,11111222,11111222' 
TCOON,ioos:station:TCOON:006:1,2011-03-03T12:00:00Z,27.8217,-97.2040,0.0,1.1,30.0,1.7,'11111222,11111222,11111222' 
TCOON,ioos:station:TCOON:006:1,2011-03-03T13:00:00Z,27.8217,-97.2040,0.0,1.3,30.0,2.4,'11111222,11111222,11111222' 
TCOON,ioos:station:TCOON:006:1,2011-03-03T14:00:00Z,27.8217,-97.2040,0.0,2.3,65.0,3.4,'11111222,11111222,11111222' 
TCOON,ioos:station:TCOON:006:1,2011-03-03T15:00:00Z,27.8217,-97.2040,0.0,2.3,79.0,2.9,'11111222,11111222,11111222' 
TCOON,ioos:station:TCOON:006:1,2011-03-03T16:00:00Z,27.8217,-97.2040,0.0,2.4,102.0,3.3,'11111222,11111222,11111222' 
TCOON,ioos:station:TCOON:006:1,2011-03-03T17:00:00Z,27.8217,-97.2040,0.0,2.8,106.0,4.2,'11111222,11111222,11111222' 
TCOON,ioos:station:TCOON:006:1,2011-03-03T18:00:00Z,27.8217,-97.2040,0.0,3.0,125.0,4.0,'11111222,11111222,11111222' 
TCOON,ioos:station:TCOON:006:1,2011-03-03T19:00:00Z,27.8217,-97.2040,0.0,2.5,108.0,4.1,'11111222,11111222,11111222' 
TCOON,ioos:station:TCOON:006:1,2011-03-03T20:00:00Z,27.8217,-97.2040,0.0,3.0,132.0,4.1,'11111222,11111222,11111222' 
TCOON,ioos:station:TCOON:006:1,2011-03-03T21:00:00Z,27.8217,-97.2040,0.0,4.4,106.0,6.3,'11111222,11111222,11111222' 
TCOON,ioos:station:TCOON:006:1,2011-03-03T22:00:00Z,27.8217,-97.2040,0.0,4.2,91.0,5.1,'11111222,11111222,11111222' 
TCOON,ioos:station:TCOON:006:1,2011-03-03T23:00:00Z,27.8217,-97.2040,0.0,4.9,89.0,6.2,'11111222,11111222,11111222' 
TCOON,ioos:station:TCOON:006:1,2011-03-04T00:00:00Z,27.8217,-97.2040,0.0,3.8,79.0,5.7,'11111222,11111222,11111222' 
TCOON,ioos:station:TCOON:006:1,2011-03-04T01:00:00Z,27.8217,-97.2040,0.0,4.5,88.0,5.6,'11111222,11111222,11111222' 
TCOON,ioos:station:TCOON:006:1,2011-03-04T02:00:00Z,27.8217,-97.2040,0.0,3.6,70.0,4.8,'11111222,11111222,11111222' 
TCOON,ioos:station:TCOON:006:1,2011-03-04T03:00:00Z,27.8217,-97.2040,0.0,2.6,67.0,4.0,'11111222,11111222,11111222' 
TCOON,ioos:station:TCOON:006:1,2011-03-04T04:00:00Z,27.8217,-97.2040,0.0,2.7,70.0,3.8,'11111222,11111222,11111222' 
TCOON,ioos:station:TCOON:006:1,2011-03-04T05:00:00Z,27.8217,-97.2040,0.0,3.0,98.0,4.4,'11111222,11111222,11111222' 
TCOON,ioos:station:TCOON:006:1,2011-03-04T06:00:00Z,27.8217,-97.2040,0.0,4.1,147.0,5.1,'11111222,11111222,11111222' 
TCOON,ioos:station:TCOON:006:1,2011-03-04T07:00:00Z,27.8217,-97.2040,0.0,5.1,158.0,5.9,'11111222,11111222,11111222' 
TCOON,ioos:station:TCOON:006:1,2011-03-04T08:00:00Z,27.8217,-97.2040,0.0,2.9,150.0,3.7,'11111222,11111222,11111222' 
TCOON,ioos:station:TCOON:006:1,2011-03-04T09:00:00Z,27.8217,-97.2040,0.0,3.3,173.0,4.2,'11111222,11111222,11111222' 
TCOON,ioos:station:TCOON:006:1,2011-03-04T10:00:00Z,27.8217,-97.2040,0.0,4.2,164.0,5.4,'11111222,11111222,11111222' 
TCOON,ioos:station:TCOON:006:1,2011-03-04T11:00:00Z,27.8217,-97.2040,0.0,4.2,144.0,5.2,'11111222,11111222,11111222' 
TCOON,ioos:station:TCOON:006:1,2011-03-04T12:00:00Z,27.8217,-97.2040,0.0,5.1,157.0,6.1,'11111222,11111222,11111222' 
TCOON,ioos:station:TCOON:006:1,2011-03-04T13:00:00Z,27.8217,-97.2040,0.0,4.2,160.0,5.8,'11111222,11111222,11111222' 
TCOON,ioos:station:TCOON:006:1,2011-03-04T14:00:00Z,27.8217,-97.2040,0.0,4.3,149.0,6.1,'11111222,11111222,11111222' 
TCOON,ioos:station:TCOON:006:1,2011-03-04T15:00:00Z,27.8217,-97.2040,0.0,5.1,158.0,7.1,'11111222,11111222,11111222' 
TCOON,ioos:station:TCOON:006:1,2011-03-04T16:00:00Z,27.8217,-97.2040,0.0,3.3,133.0,6.0,'11111222,11111222,11111222' 
TCOON,ioos:station:TCOON:006:1,2011-03-04T17:00:00Z,27.8217,-97.2040,0.0,2.6,124.0,4.8,'11111222,11111222,11111222' 
TCOON,ioos:station:TCOON:006:1,2011-03-04T18:00:00Z,27.8217,-97.2040,0.0,3.8,110.0,4.5,'11111222,11111222,11111222' 
TCOON,ioos:station:TCOON:006:1,2011-03-04T19:00:00Z,27.8217,-97.2040,0.0,3.8,91.0,5.8,'11111222,11111222,11111222' 
TCOON,ioos:station:TCOON:006:1,2011-03-04T20:00:00Z,27.8217,-97.2040,0.0,4.8,81.0,6.3,'11111222,11111222,11111222' 
TCOON,ioos:station:TCOON:006:1,2011-03-04T21:00:00Z,27.8217,-97.2040,0.0,4.9,83.0,7.2,'11111222,11111222,11111222' 
TCOON,ioos:station:TCOON:006:1,2011-03-04T22:00:00Z,27.8217,-97.2040,0.0,5.0,83.0,7.0,'11111222,11111222,11111222' 
TCOON,ioos:station:TCOON:006:1,2011-03-04T23:00:00Z,27.8217,-97.2040,0.0,3.9,78.0,5.1,'11111222,11111222,11111222' 
TCOON,ioos:station:TCOON:006:1,2011-03-05T00:00:00Z,27.8217,-97.2040,0.0,4.4,87.0,5.8,'11111222,11111222,11111222' 
TCOON,ioos:station:TCOON:006:1,2011-03-05T01:00:00Z,27.8217,-97.2040,0.0,2.7,83.0,4.3,'11111222,11111222,11111222' 
TCOON,ioos:station:TCOON:006:1,2011-03-05T02:00:00Z,27.8217,-97.2040,0.0,3.7,95.0,5.4,'11111222,11111222,11111222' 
TCOON,ioos:station:TCOON:006:1,2011-03-05T03:00:00Z,27.8217,-97.2040,0.0,5.0,105.0,6.9,'11111222,11111222,11111222' 
TCOON,ioos:station:TCOON:006:1,2011-03-05T04:00:00Z,27.8217,-97.2040,0.0,4.4,105.0,6.3,'11111222,11111222,11111222' 
TCOON,ioos:station:TCOON:006:1,2011-03-05T05:00:00Z,27.8217,-97.2040,0.0,3.6,104.0,6.5,'11111222,11111222,11111222' 
TCOON,ioos:station:TCOON:006:1,2011-03-05T06:00:00Z,27.8217,-97.2040,0.0,2.0,109.0,3.9,'11111222,11111222,11111222' 
TCOON,ioos:station:TCOON:006:1,2011-03-05T07:00:00Z,27.8217,-97.2040,0.0,2.5,117.0,4.4,'11111222,11111222,11111222' 
TCOON,ioos:station:TCOON:006:1,2011-03-05T08:00:00Z,27.8217,-97.2040,0.0,1.8,109.0,3.2,'11111222,11111222,11111222' 
TCOON,ioos:station:TCOON:006:1,2011-03-05T09:00:00Z,27.8217,-97.2040,0.0,1.9,160.0,3.0,'11111222,11111222,11111222' 
TCOON,ioos:station:TCOON:006:1,2011-03-05T10:00:00Z,27.8217,-97.2040,0.0,0.7,48.0,1.5,'11111222,11111222,11111222' 
TCOON,ioos:station:TCOON:006:1,2011-03-05T11:00:00Z,27.8217,-97.2040,0.0,0.6,267.0,0.8,'11111222,11111222,11111222' 
TCOON,ioos:station:TCOON:006:1,2011-03-05T12:00:00Z,27.8217,-97.2040,0.0,1.1,315.0,1.3,'11111222,11111222,11111222' 
TCOON,ioos:station:TCOON:006:1,2011-03-05T13:00:00Z,27.8217,-97.2040,0.0,2.0,291.0,2.7,'11111222,11111222,11111222' 
TCOON,ioos:station:TCOON:006:1,2011-03-05T14:00:00Z,27.8217,-97.2040,0.0,2.7,304.0,3.7,'11111222,11111222,11111222' 
TCOON,ioos:station:TCOON:006:1,2011-03-05T15:00:00Z,27.8217,-97.2040,0.0,3.4,357.0,6.5,'11111222,11111222,11111222' 
TCOON,ioos:station:TCOON:006:1,2011-03-05T16:00:00Z,27.8217,-97.2040,0.0,3.8,349.0,7.3,'11111222,11111222,11111222' 
TCOON,ioos:station:TCOON:006:1,2011-03-05T17:00:00Z,27.8217,-97.2040,0.0,5.2,350.0,10.2,'11111222,11111222,11111222' 
TCOON,ioos:station:TCOON:006:1,2011-03-05T18:00:00Z,27.8217,-97.2040,0.0,4.6,10.0,12.4,'11111222,11111222,11111222' 
TCOON,ioos:station:TCOON:006:1,2011-03-05T19:00:00Z,27.8217,-97.2040,0.0,6.6,347.0,10.3,'11111222,11111222,11111222' 
TCOON,ioos:station:TCOON:006:1,2011-03-05T20:00:00Z,27.8217,-97.2040,0.0,6.1,4.0,11.1,'11111222,11111222,11111222' 
TCOON,ioos:station:TCOON:006:1,2011-03-05T21:00:00Z,27.8217,-97.2040,0.0,4.4,4.0,9.7,'11111222,11111222,11111222' 
TCOON,ioos:station:TCOON:006:1,2011-03-05T22:00:00Z,27.8217,-97.2040,0.0,4.3,353.0,6.8,'11111222,11111222,11111222' 
TCOON,ioos:station:TCOON:006:1,2011-03-05T23:00:00Z,27.8217,-97.2040,0.0,3.1,2.0,7.9,'11111222,11111222,11111222' 
TCOON,ioos:station:TCOON:006:1,2011-03-06T00:00:00Z,27.8217,-97.2040,0.0,4.2,349.0,6.0,'11111222,11111222,11111222' 
TCOON,ioos:station:TCOON:006:1,2011-03-06T01:00:00Z,27.8217,-97.2040,0.0,2.2,346.0,4.4,'11111222,11111222,11111222' 
TCOON,ioos:station:TCOON:006:1,2011-03-06T02:00:00Z,27.8217,-97.2040,0.0,2.6,358.0,4.7,'11111222,11111222,11111222' 
TCOON,ioos:station:TCOON:006:1,2011-03-06T03:00:00Z,27.8217,-97.2040,0.0,2.0,6.0,5.2,'11111222,11111222,11111222' 
TCOON,ioos:station:TCOON:006:1,2011-03-06T04:00:00Z,27.8217,-97.2040,0.0,2.5,25.0,5.4,'11111222,11111222,11111222' 
TCOON,ioos:station:TCOON:006:1,2011-03-06T05:00:00Z,27.8217,-97.2040,0.0,1.9,26.0,4.6,'11111222,11111222,11111222' 
TCOON,ioos:station:TCOON:006:1,2011-03-06T06:00:00Z,27.8217,-97.2040,0.0,1.4,18.0,3.6,'11111222,11111222,11111222' 
TCOON,ioos:station:TCOON:006:1,2011-03-06T07:00:00Z,27.8217,-97.2040,0.0,2.0,8.0,4.0,'11111222,11111222,11111222' 
TCOON,ioos:station:TCOON:006:1,2011-03-06T08:00:00Z,27.8217,-97.2040,0.0,2.3,8.0,4.1,'11111222,11111222,11111222' 
TCOON,ioos:station:TCOON:006:1,2011-03-06T09:00:00Z,27.8217,-97.2040,0.0,1.4,16.0,3.6,'11111222,11111222,11111222' 
TCOON,ioos:station:TCOON:006:1,2011-03-06T10:00:00Z,27.8217,-97.2040,0.0,1.2,10.0,3.4,'11111222,11111222,11111222' 
TCOON,ioos:station:TCOON:006:1,2011-03-06T11:00:00Z,27.8217,-97.2040,0.0,1.2,26.0,3.4,'11111222,11111222,11111222' 
TCOON,ioos:station:TCOON:006:1,2011-03-06T12:00:00Z,27.8217,-97.2040,0.0,0.9,14.0,2.6,'11111222,11111222,11111222' 
TCOON,ioos:station:TCOON:006:1,2011-03-06T13:00:00Z,27.8217,-97.2040,0.0,1.6,1.0,2.6,'11111222,11111222,11111222' 
TCOON,ioos:station:TCOON:006:1,2011-03-06T14:00:00Z,27.8217,-97.2040,0.0,2.8,37.0,5.2,'11111222,11111222,11111222' 
TCOON,ioos:station:TCOON:006:1,2011-03-06T15:00:00Z,27.8217,-97.2040,0.0,2.7,50.0,5.9,'11111222,11111222,11111222' 
TCOON,ioos:station:TCOON:006:1,2011-03-06T16:00:00Z,27.8217,-97.2040,0.0,4.5,33.0,5.8,'11111222,11111222,11111222' 
TCOON,ioos:station:TCOON:006:1,2011-03-06T17:00:00Z,27.8217,-97.2040,0.0,3.8,69.0,6.3,'11111222,11111222,11111222' 
TCOON,ioos:station:TCOON:006:1,2011-03-06T18:00:00Z,27.8217,-97.2040,0.0,3.1,90.0,4.7,'11111222,11111222,11111222' 
TCOON,ioos:station:TCOON:006:1,2011-03-06T19:00:00Z,27.8217,-97.2040,0.0,3.8,88.0,5.6,'11111222,11111222,11111222' 
TCOON,ioos:station:TCOON:006:1,2011-03-06T20:00:00Z,27.8217,-97.2040,0.0,4.6,105.0,6.3,'11111222,11111222,11111222' 
TCOON,ioos:station:TCOON:006:1,2011-03-06T21:00:00Z,27.8217,-97.2040,0.0,4.0,108.0,6.6,'11111222,11111222,11111222' 
TCOON,ioos:station:TCOON:006:1,2011-03-06T22:00:00Z,27.8217,-97.2040,0.0,4.3,101.0,7.1,'11111222,11111222,11111222' 
TCOON,ioos:station:TCOON:006:1,2011-03-06T23:00:00Z,27.8217,-97.2040,0.0,5.1,100.0,6.9,'11111222,11111222,11111222' 
TCOON,ioos:station:TCOON:006:1,2011-03-07T00:00:00Z,27.8217,-97.2040,0.0,3.3,108.0,6.2,'11111222,11111222,11111222' 
TCOON,ioos:station:TCOON:006:1,2011-03-07T01:00:00Z,27.8217,-97.2040,0.0,3.6,111.0,6.5,'11111222,11111222,11111222' 
TCOON,ioos:station:TCOON:006:1,2011-03-07T02:00:00Z,27.8217,-97.2040,0.0,4.0,112.0,7.1,'11111222,11111222,11111222' 
TCOON,ioos:station:TCOON:006:1,2011-03-07T03:00:00Z,27.8217,-97.2040,0.0,3.9,115.0,6.8,'11111222,11111222,11111222' 
TCOON,ioos:station:TCOON:006:1,2011-03-07T04:00:00Z,27.8217,-97.2040,0.0,4.9,104.0,6.8,'11111222,11111222,11111222' 
TCOON,ioos:station:TCOON:006:1,2011-03-07T05:00:00Z,27.8217,-97.2040,0.0,3.1,129.0,6.1,'11111222,11111222,11111222' 
TCOON,ioos:station:TCOON:006:1,2011-03-07T06:00:00Z,27.8217,-97.2040,0.0,4.5,135.0,7.2,'11111222,11111222,11111222' 
TCOON,ioos:station:TCOON:006:1,2011-03-07T07:00:00Z,27.8217,-97.2040,0.0,4.5,151.0,6.0,'11111222,11111222,11111222' 
TCOON,ioos:station:TCOON:006:1,2011-03-07T08:00:00Z,27.8217,-97.2040,0.0,3.9,153.0,5.3,'11111222,11111222,11111222' 
TCOON,ioos:station:TCOON:006:1,2011-03-07T09:00:00Z,27.8217,-97.2040,0.0,4.5,165.0,6.0,'11111222,11111222,11111222' 
TCOON,ioos:station:TCOON:006:1,2011-03-07T10:00:00Z,27.8217,-97.2040,0.0,3.7,175.0,4.9,'11111222,11111222,11111222' 
TCOON,ioos:station:TCOON:006:1,2011-03-07T11:00:00Z,27.8217,-97.2040,0.0,3.7,181.0,5.0,'11111222,11111222,11111222' 
TCOON,ioos:station:TCOON:006:1,2011-03-07T12:00:00Z,27.8217,-97.2040,0.0,3.7,163.0,4.4,'11111222,11111222,11111222' 
TCOON,ioos:station:TCOON:006:1,2011-03-07T13:00:00Z,27.8217,-97.2040,0.0,2.3,127.0,3.3,'11111222,11111222,11111222' 
TCOON,ioos:station:TCOON:006:1,2011-03-07T14:00:00Z,27.8217,-97.2040,0.0,2.2,120.0,3.2,'11111222,11111222,11111222' 
TCOON,ioos:station:TCOON:006:1,2011-03-07T15:00:00Z,27.8217,-97.2040,0.0,3.6,143.0,4.4,'11111222,11111222,11111222' 
TCOON,ioos:station:TCOON:006:1,2011-03-07T16:00:00Z,27.8217,-97.2040,0.0,5.5,144.0,6.3,'11111222,11111222,11111222' 
TCOON,ioos:station:TCOON:006:1,2011-03-07T17:00:00Z,27.8217,-97.2040,0.0,5.1,143.0,6.6,'11111222,11111222,11111222' 
TCOON,ioos:station:TCOON:006:1,2011-03-07T18:00:00Z,27.8217,-97.2040,0.0,6.9,155.0,8.7,'11111222,11111222,11111222' 
TCOON,ioos:station:TCOON:006:1,2011-03-07T19:00:00Z,27.8217,-97.2040,0.0,6.9,153.0,9.6,'11111222,11111222,11111222' 
TCOON,ioos:station:TCOON:006:1,2011-03-07T20:00:00Z,27.8217,-97.2040,0.0,7.2,150.0,8.2,'11111222,11111222,11111222' 
TCOON,ioos:station:TCOON:006:1,2011-03-07T21:00:00Z,27.8217,-97.2040,0.0,5.9,145.0,7.9,'11111222,11111222,11111222' 
TCOON,ioos:station:TCOON:006:1,2011-03-07T22:00:00Z,27.8217,-97.2040,0.0,5.6,129.0,7.5,'11111222,11111222,11111222' 
TCOON,ioos:station:TCOON:006:1,2011-03-07T23:00:00Z,27.8217,-97.2040,0.0,5.5,124.0,7.1,'11111222,11111222,11111222' 
TCOON,ioos:station:TCOON:006:1,2011-03-08T00:00:00Z,27.8217,-97.2040,0.0,4.1,126.0,5.9,'11111222,11111222,11111222' 
TCOON,ioos:station:TCOON:006:1,2011-03-08T01:00:00Z,27.8217,-97.2040,0.0,4.0,129.0,6.1,'11111222,11111222,11111222' 
TCOON,ioos:station:TCOON:006:1,2011-03-08T02:00:00Z,27.8217,-97.2040,0.0,4.2,133.0,6.8,'11111222,11111222,11111222' 
TCOON,ioos:station:TCOON:006:1,2011-03-08T03:00:00Z,27.8217,-97.2040,0.0,3.9,128.0,6.5,'11111222,11111222,11111222' 
TCOON,ioos:station:TCOON:006:1,2011-03-08T04:00:00Z,27.8217,-97.2040,0.0,5.4,135.0,7.3,'11111222,11111222,11111222' 
TCOON,ioos:station:TCOON:006:1,2011-03-08T05:00:00Z,27.8217,-97.2040,0.0,5.7,145.0,8.2,'11111222,11111222,11111222' 
TCOON,ioos:station:TCOON:006:1,2011-03-08T06:00:00Z,27.8217,-97.2040,0.0,7.6,144.0,10.1,'11111222,11111222,11111222' 
TCOON,ioos:station:TCOON:006:1,2011-03-08T07:00:00Z,27.8217,-97.2040,0.0,6.4,143.0,8.2,'11111222,11111222,11111222' 
TCOON,ioos:station:TCOON:006:1,2011-03-08T08:00:00Z,27.8217,-97.2040,0.0,4.4,137.0,6.5,'11111222,11111222,11111222' 
TCOON,ioos:station:TCOON:006:1,2011-03-08T09:00:00Z,27.8217,-97.2040,0.0,4.7,139.0,6.6,'11111222,11111222,11111222' 
TCOON,ioos:station:TCOON:006:1,2011-03-08T10:00:00Z,27.8217,-97.2040,0.0,6.1,141.0,7.7,'11111222,11111222,11111222' 
TCOON,ioos:station:TCOON:006:1,2011-03-08T11:00:00Z,27.8217,-97.2040,0.0,6.6,155.0,8.6,'11111222,11111222,11111222' 
TCOON,ioos:station:TCOON:006:1,2011-03-08T12:00:00Z,27.8217,-97.2040,0.0,4.7,159.0,6.2,'11111222,11111222,11111222' 
TCOON,ioos:station:TCOON:006:1,2011-03-08T13:00:00Z,27.8217,-97.2040,0.0,4.9,151.0,6.6,'11111222,11111222,11111222' 
TCOON,ioos:station:TCOON:006:1,2011-03-08T14:00:00Z,27.8217,-97.2040,0.0,5.9,150.0,7.3,'11111222,11111222,11111222' 
TCOON,ioos:station:TCOON:006:1,2011-03-08T15:00:00Z,27.8217,-97.2040,0.0,6.4,150.0,7.5,'11111222,11111222,11111222' 
TCOON,ioos:station:TCOON:006:1,2011-03-08T16:00:00Z,27.8217,-97.2040,0.0,4.1,154.0,5.3,'11111222,11111222,11111222' 
TCOON,ioos:station:TCOON:006:1,2011-03-08T17:00:00Z,27.8217,-97.2040,0.0,3.5,133.0,5.6,'11111222,11111222,11111222' 
TCOON,ioos:station:TCOON:006:1,2011-03-08T18:00:00Z,27.8217,-97.2040,0.0,2.4,127.0,4.4,'11111222,11111222,11111222' 
TCOON,ioos:station:TCOON:006:1,2011-03-08T19:00:00Z,27.8217,-97.2040,0.0,3.1,122.0,5.9,'11111222,11111222,11111222' 
TCOON,ioos:station:TCOON:006:1,2011-03-08T20:00:00Z,27.8217,-97.2040,0.0,2.8,125.0,4.2,'11111222,11111222,11111222' 
TCOON,ioos:station:TCOON:006:1,2011-03-08T21:00:00Z,27.8217,-97.2040,0.0,2.4,137.0,3.9,'11111222,11111222,11111222' 
TCOON,ioos:station:TCOON:006:1,2011-03-08T22:00:00Z,27.8217,-97.2040,0.0,2.2,115.0,5.5,'11111222,11111222,11111222' 
TCOON,ioos:station:TCOON:006:1,2011-03-08T23:00:00Z,27.8217,-97.2040,0.0,3.5,121.0,5.1,'11111222,11111222,11111222' 
TCOON,ioos:station:TCOON:006:1,2011-03-09T00:00:00Z,27.8217,-97.2040,0.0,2.0,75.0,3.0,'11111222,11111222,11111222' 
TCOON,ioos:station:TCOON:006:1,2011-03-09T01:00:00Z,27.8217,-97.2040,0.0,2.2,57.0,3.3,'11111222,11111222,11111222' 
TCOON,ioos:station:TCOON:006:1,2011-03-09T02:00:00Z,27.8217,-97.2040,0.0,2.6,85.0,3.0,'11111222,11111222,11111222' 
TCOON,ioos:station:TCOON:006:1,2011-03-09T03:00:00Z,27.8217,-97.2040,0.0,2.2,72.0,3.4,'11111222,11111222,11111222' 
TCOON,ioos:station:TCOON:006:1,2011-03-09T04:00:00Z,27.8217,-97.2040,0.0,2.5,137.0,4.4,'11111222,11111222,11111222' 
TCOON,ioos:station:TCOON:006:1,2011-03-09T05:00:00Z,27.8217,-97.2040,0.0,2.4,162.0,3.4,'11111222,11111222,11111222' 
TCOON,ioos:station:TCOON:006:1,2011-03-09T06:00:00Z,27.8217,-97.2040,0.0,1.2,152.0,1.4,'11111222,11111222,11111222' 
TCOON,ioos:station:TCOON:006:1,2011-03-09T07:00:00Z,27.8217,-97.2040,0.0,2.6,190.0,3.3,'11111222,11111222,11111222' 
TCOON,ioos:station:TCOON:006:1,2011-03-09T08:00:00Z,27.8217,-97.2040,0.0,2.9,219.0,3.2,'11111222,11111222,11111222' 
TCOON,ioos:station:TCOON:006:1,2011-03-09T09:00:00Z,27.8217,-97.2040,0.0,1.4,314.0,1.8,'11111222,11111222,11111222' 
TCOON,ioos:station:TCOON:006:1,2011-03-09T10:00:00Z,27.8217,-97.2040,0.0,2.3,328.0,3.0,'11111222,11111222,11111222' 
TCOON,ioos:station:TCOON:006:1,2011-03-09T11:00:00Z,27.8217,-97.2040,0.0,2.7,347.0,3.9,'11111222,11111222,11111222' 
TCOON,ioos:station:TCOON:006:1,2011-03-09T12:00:00Z,27.8217,-97.2040,0.0,2.7,359.0,5.3,'11111222,11111222,11111222' 
TCOON,ioos:station:TCOON:006:1,2011-03-09T13:00:00Z,27.8217,-97.2040,0.0,3.3,357.0,7.1,'11111222,11111222,11111222' 